Back to catalog

COSMOS 890

AliveMilitaryPO
NORAD 9737·PAYLOAD·🇷🇺 Russia

Launched Jan 20, 1977 from Plesetsk Cosmodrome

Loading…

Next Passes (next 24 hours)

TLE

FreshSource: Space-Track

Epoch: Sep 14, 2026, 12:08 UTC

1 09737U 77004A   26257.50576360  .00000042  00000-0  29421-4 0  9996
2 09737  82.9559  99.3824 0026947  40.1503 335.2030 13.71932022484587

Track COSMOS 890 in real time with AllMySat

Download on the App Store